Location: Dompnac
(44.5644°N, 4.1026°E)
Time: 10:07:54
(UTC+00:00)

Cosmos 2026 Rocket - Pass Details

Date: 21 January 2021
Orbit: 940 x 1000 km, 82.9° (Epoch: 26 February)

Event Time Altitude Azimuth Distance (km) Brightness Sun altitude
Rises 04:38:55 0° 1° (N) 3,705 7.0 -27.2°
Reaches altitude 10° 04:42:00 10° 15° (NNE) 2,761 6.5 -26.6°
Maximum altitude 04:47:02 24° 68° (ENE) 1,926 6.1 -25.7°
Drops below altitude 10° 04:52:04 10° 121° (ESE) 2,765 7.2 -24.8°
Sets 04:55:07 0° 135° (SE) 3,712 7.8 -24.3°
